Location: Étavigny
(49.1201°N, 2.9800°E)
Time: 18:37:58
(UTC+00:00)

Cosmos 2251 Rocket - Pass Details

Date: 28 January 2023
Orbit: 764 x 791 km, 74.0° (Epoch: 26 March)

Event Time Altitude Azimuth Distance (km) Brightness Sun altitude
Rises 18:27:49 0° 203° (SSW) 3,256 7.2 -17.9°
Reaches altitude 10° 18:30:11 10° 205° (SSW) 2,336 6.4 -18.3°
Maximum altitude 18:35:31 83° 293° (WNW) 800 3.6 -19.2°
Enters shadow 18:40:32 12° 22° (NNE) 2,222 5.6 -20.0°
